{"data":{"norad_id":55354,"intl_designator":"2023-013Z","name":"STARLINK-5649","alt_names":[],"object_type":"PAYLOAD","status":"ACTIVE","operator":null,"country":"US","launch_date":"2023-01-26","launch_site_code":"AFETR","launch_vehicle":null,"mission":null,"orbit_class":"UNKNOWN","rcs_meters":null,"size_class":null,"mass_kg":null,"dimensions":null,"purposes":["comms"],"wikipedia_slug":null,"has_3d_model":false,"image_url":null,"decayed_at":null,"tle_current":{"epoch":"2026-09-20T12:33:32.694048Z","epoch_age_seconds":94702,"freshness":"FRESH","line1":"1 55354U 23013Z   26263.52329507  .00002631  00000+0  10507-3 0  9990","line2":"2 55354  43.0029 282.8378 0001989 285.5641  74.4991 15.27595682201476","mean_motion":15.27595682,"eccentricity":0.0001989,"inclination_deg":43.0029,"raan_deg":282.8378,"arg_perigee_deg":285.5641,"mean_anomaly_deg":74.4991,"bstar":0.00010507,"rev_number":20147,"period_min":94.265780989554,"perigee_km":481.63745831707,"apogee_km":484.36681946652,"semimajor_km":6861.1391388918,"source":"CELESTRAK","updated_at":"2026-09-21T09:00:33.183873Z"}}}